This is the latest recevied weather packets stored in our database for station/object G0TGD-10. If no packets are shown the sender has not sent any weather packets the latest 1 day(s).
| Time | Temp. | Humidity | Pressure | Rain* | Wind** | Luminosity | Snow |
|---|---|---|---|---|---|---|---|
| 1777726251 | 28.33° C | 40% | 1014.3 hPa | - | - | - | - |
| 1777725350 | 27.78° C | 40% | 1014.4 hPa | - | - | - | - |
| 1777724450 | 28.33° C | 41% | 1014.5 hPa | - | - | - | - |
| 1777723550 | 28.33° C | 42% | 1014.8 hPa | - | - | - | - |
| 1777722650 | 25.56° C | 43% | 1015 hPa | - | - | - | - |
| 1777721750 | 23.89° C | 46% | 1015.3 hPa | - | - | - | - |
| 1777720850 | 22.78° C | 45% | 1015.8 hPa | - | - | - | - |
| 1777719950 | 23.89° C | 46% | 1015.6 hPa | - | - | - | - |
| 1777719050 | 23.33° C | 47% | 1015.7 hPa | - | - | - | - |
| 1777718150 | 22.78° C | 48% | 1015.8 hPa | - | - | - | - |
| 1777717250 | 23.33° C | 50% | 1015.8 hPa | - | - | - | - |
| 1777716350 | 21.67° C | 51% | 1015.9 hPa | - | - | - | - |
| 1777715449 | 21.11° C | 52% | 1016.2 hPa | - | - | - | - |
| 1777714549 | 21.67° C | 51% | 1016.5 hPa | - | - | - | - |
| 1777713649 | 21.67° C | 52% | 1016.4 hPa | - | - | - | - |
| 1777712749 | 20.56° C | 55% | 1016.4 hPa | - | - | - | - |
| 1777711849 | 20.56° C | 56% | 1016.3 hPa | - | - | - | - |
| 1777710949 | 18.89° C | 60% | 1016.4 hPa | - | - | - | - |
| 1777710049 | 16.11° C | 62% | 1016.7 hPa | - | - | - | - |
| 1777709149 | 16.67° C | 64% | 1016.7 hPa | - | - | - | - |
| 1777708249 | 15.56° C | 65% | 1016.6 hPa | - | - | - | - |
| 1777707349 | 14.44° C | 67% | 1016.7 hPa | - | - | - | - |
| 1777706449 | 13.33° C | 70% | 1016.7 hPa | - | - | - | - |
| 1777705548 | 11.11° C | 70% | 1016.7 hPa | - | - | - | - |
| 1777704648 | 10.56° C | 70% | 1016.9 hPa | - | - | - | - |
* Rain since midnight (hover to see other rain measurements)
** Current wind speed in m/s (hover to see current wind gust speed)